This demonstration page uses our WeatherBlox Daily Observations layout. Learn more.

41.55636, -103.73856

Hourly Observations for December 22, 2015

Temp ( °F °C ) Dew Point ( °F °C ) Humidity (%) Winds ( mph kmh ) Pressure ( in mb ) Visibility ( mi km ) Precip ( " mm )
12:53 am 00:53 Mostly Clear 33 0.6 23 -5 66 66 SE 12 19 29.48 998 10 16.0934 0 0
1:53 am 01:53 Clear 30 -1.1 22 -5.6 72 72 SE 13 20 29.44 997 10 16.0934 0 0
2:53 am 02:53 Clear 26 -3.3 20 -6.7 78 78 ESE 9 15 29.42 996 10 16.0934 0 0
3:53 am 03:53 Clear 26 -3.3 20 -6.7 78 78 E 9 15 29.39 995 10 16.0934 0 0
4:53 am 04:53 Clear 31 -0.6 21 -6.1 67 67 Calm 29.37 995 10 16.0934 0 0
5:53 am 05:53 Clear 36 2.2 22 -5.6 57 57 VRB 7 11 29.36 994 10 16.0934 0 0
6:53 am 06:53 Partly Cloudy 41 5 25 -3.9 53 53 NW 9 15 29.35 994 10 16.0934 0 0
7:53 am 07:53 Mostly Cloudy 41 5 27 -2.8 57 57 W 18 30 29.37 995 10 16.0934 0 0
8:53 am 08:53 Sunny 40 4.4 26 -3.3 58 58 W 18 30 29.39 995 10 16.0934 0 0
9:53 am 09:53 Sunny 40 4.4 26 -3.3 58 58 W 18 30 29.38 995 10 16.0934 0 0
10:53 am 10:53 Sunny 41 5 24 -4.4 51 51 W 13 20 29.36 994 10 16.0934 0 0
11:53 am 11:53 Sunny 41 5 24 -4.4 51 51 W 15 24 29.34 993 10 16.0934 0 0
12:53 pm 12:53 Sunny 42 5.6 23 -5 47 47 W 13 20 29.32 993 10 16.0934 0 0
1:53 pm 13:53 Partly Cloudy 43 6.1 23 -5 45 45 W 13 20 29.32 993 10 16.0934 0 0
2:53 pm 14:53 Sunny 41 5 23 -5 49 49 W 13 20 29.33 993 10 16.0934 0 0
3:53 pm 15:53 Sunny 38 3.3 26 -3.3 62 62 WSW 9 15 29.34 994 10 16.0934 0 0
4:53 pm 16:53 Clear 37 2.8 24 -4.4 59 59 W 10 17 29.34 994 10 16.0934 0 0
5:53 pm 17:53 Partly Cloudy 35 1.7 25 -3.9 67 67 W 8 13 29.34 993 10 16.0934 0 0
6:53 pm 18:53 Cloudy 33 0.6 26 -3.3 75 75 N 5 7 29.35 994 10 16.0934 0 0
7:53 pm 19:53 Cloudy 33 0.6 25 -3.9 72 72 Calm 29.36 994 10 16.0934 0 0
8:53 pm 20:53 Mostly Clear 32 0 24 -4.4 73 73 W 6 9 29.38 995 10 16.0934 0 0
9:53 pm 21:53 Clear 29 -1.7 23 -5 78 78 NNW 6 9 29.39 995 10 16.0934 0 0
10:53 pm 22:53 Clear 24 -4.4 18 -7.8 77 77 NNE 7 11 29.43 997 10 16.0934 0 0
11:53 pm 23:53 Clear 23 -5 16 -8.9 74 74 WNW 6 9 29.44 997 10 16.0934 0 0

Powered by AerisWeather